Terminal Aerodrome Forecast
Issued by NWS Charleston, WV

Current Version | Previous Version | Text Only | Print | Product List | Glossary Off
Versions: 1 2 3 4 5 6 7 8 9 10 11 12 13 14 15 16 17 18 19 20 21 22 23 24 25 26

000
FTUS41 KRLX 151100
TAFEKN
TAF
KEKN 151120Z 1512/1612 00000KT 1/4SM FG VV001
     FM151300 00000KT 3SM BR SCT250
     FM151400 VRB03KT P6SM SCT025
     FM151800 27007KT P6SM SCT040
     FM160600 26005KT 5SM BR BKN090
     FM160900 28006KT 5SM BR BKN030=

USA.gov is the U.S. government's official web portal to all federal, state and local government web resources and services.